Location: Bédeille
(43.0872°N, 1.1041°E)
Time: 13:00:37
(UTC+00:00)

Atlas Centaur 2 - Pass Details

Date: 03 February 2023
Orbit: 458 x 1296 km, 30.4° (Epoch: 19 March)

Event Time Altitude Azimuth Distance (km) Brightness Sun altitude
Rises 18:07:28 0° 223° (SW) 4,015 6.7 -10.8°
Reaches altitude 10° 18:10:48 10° 210° (SSW) 3,153 5.8 -11.4°
Maximum altitude 18:16:55 24° 160° (SSE) 2,372 4.4 -12.5°
Enters shadow 18:23:05 11° 112° (ESE) 3,251 4.7 -13.6°
